Regional Weather Roundup
Issued by NWS Goodland, KS

Home | Current Version | Previous Version | Graphics & Text | Print | Product List | Glossary On
Versions: 1 2 3 4 5 6 7 8 9 10 11 12 13 14 15 16 17 18 19 20 21 22 23 24 25 26 27 28 29 30 31 32 33 34 35 36 37 38 39 40 41 42 43 44 45 46 47 48 49 50
000
ASUS43 KGLD 290859
RWRGLD

GOODLAND FORECAST AREA HOURLY WEATHER ROUNDUP
NATIONAL WEATHER SERVICE GOODLAND KS
200 AM MST THU JAN 29 2015

...OFFICIAL OBSERVATIONS...

CITY           SKY/WX    TMP DP  RH WIND       PRES   REMARKS
GOODLAND KS    CLEAR     34  29  82 N14       30.29R
HILL CITY KS   CLEAR     39  30  70 N17       30.29R
IMPERIAL NEB     N/A     31  25  78 MISG      30.33R
MCCOOK NEB     CLEAR     37  28  70 N20       30.30R
AKRON CO       CLOUDY    36  28  73 NW10      30.34R
BURLINGTON CO  CLEAR     36  28  73 N9        30.32R
LIMON CO       CLOUDY    33  27  78 N13       30.35R
$$

...UNOFFICIAL OBSERVATIONS...

CITY           SKY/WX    TMP DP  RH WIND       PRES   REMARKS
COLBY KS       CLEAR     36  34  93 N20G26    30.28R
GOVE KS          N/A     42  32  68 MISG        N/A
NORTON KS      MOCLDY    37  28  70 N18G26    30.26R
SHARON SPRINGS   N/A     39  31  75 N20G26      N/A
KIT CARSON CO    N/A     37  29  73 MISG        N/A
YUMA CO          N/A     34  28  79 NW7         N/A
$$



USA.gov is the U.S. government's official web portal to all federal, state and local government web resources and services.